Regional Weather Roundup
Issued by NWS Grand Forks, ND

Home | Current Version | Previous Version | Graphics & Text | Print | Product List | Glossary On
Versions: 1 2 3 4 5 6 7 8 9 10 11 12 13 14 15 16 17 18 19 20 21 22 23 24 25 26 27 28 29 30 31 32 33 34 35 36 37 38 39 40 41 42 43 44 45 46 47 48 49 50
000
ASUS43 KFGF 240410
RWRFGF
PRAIRIE TO PINES  WEATHER ROUNDUP
NATIONAL WEATHER SERVICE EASTERN NORTH DAKOTA/GRAND FORKS ND
1000 PM CST SUN NOV 23 2014

 **SATELLITE DATA USED TO AUGMENT SKY COVER AT AUTOMATED STATIONS**
 *****  WEATHER ACROSS EASTERN NORTH DAKOTA  *****

CITY           SKY/WX    TMP DP  RH WIND       PRES   REMARKS
GRAND FORKS    FLURRIES  17  12  80 N28G35    29.60R WCI  -2
GRAND FRKS AFB FLURRIES  16  13  90 N20       29.61S WCI  -1
GRAND FRKS NWS   N/A     16 N/A N/A N21         N/A  WCI  -2
DEVILS LAKE    CLOUDY    14   3  62 N16G24    29.63R WCI  -2
FARGO          LGT SNOW  19  15  84 NW24      29.58R FOG     WCI   2
WAHPETON ARPT  CLOUDY    21  18  86 NW18G28   29.56R WCI   6
$$

 ***** WEATHER ACROSS CENTRAL AND WESTERN NORTH DAKOTA  *****

CITY           SKY/WX    TMP DP  RH WIND       PRES   REMARKS
BISMARCK       CLOUDY    20  13  74 N23G31    29.70R WCI   3
MINOT          MOCLDY    12   7  80 NW16G23   29.74R WCI  -5
JAMESTOWN      FLURRIES  15   9  76 NW18      29.62R WCI  -2
MINOT AFB      CLOUDY    12   9  85 NW20      29.74S WCI  -6
GARRISON         N/A     15   9  76 N16G24    29.73R WCI  -1
WILLISTON      CLEAR      7   3  84 NW7       29.82R WCI  -5
DICKINSON      CLEAR     18  13  80 NW13G23   29.72R WCI   5
HETTINGER      CLOUDY    21  15  78 NW23G35   29.73R WCI   5
$$

 *****  OTHER AIRPORT OBSERVATIONS IN OUR AREA  *****

CITY           SKY/WX    TMP DP  RH WIND       PRES   REMARKS
WALHALLA       LGT SNOW  14  10  85 NW26G36   29.65S WCI  -6
GRAFTON AIRPOR FLURRIES  16  10  79 N23G38    29.62R WCI  -2
VALLEY CITY AR LGT SNOW  16  14  93 NW21G29   29.60S WCI  -2
CANDO          FLURRIES  14   9  79 N16G22    29.67S WCI  -2
CAVALIER APRT  LGT SNOW  16  10  79 N22G35    29.63R WCI  -2
GWINNER        CLOUDY    21  12  68 NW24G30   29.60R WCI   4
ROLLA          FLURRIES   9   5  85 N25G32    29.66R WCI -13
 ***** THE ABOVE OBSERVATIONS ARE NON NWS ARE NOT QUALITY
       CONTROLLED AND MAY MIS-REPORT RAIN FOR SNOW...
$$

  *****  WEATHER ACROSS NORTHERN MINNESOTA  *****

CITY           SKY/WX    TMP DP  RH WIND       PRES   REMARKS
FLAG ISLAND    CLOUDY    27  27 100 NW17      29.42S WCI  14
WARROAD        MIX PCPN  21  18  86 NW15      29.46S WCI   8
ROSEAU         CLOUDY    21  18  86 NW13      29.49R WCI   9
HALLOCK        FLURRIES  16  12  86 N20G29    29.58R WCI  -1
THF RVR FALLS  CLOUDY    18  16  93 NW22      29.51S WCI   0
BAUDETTE       FRZ RAIN  28  26  92 W8        29.41S FOG     WCI  20
WASKISH        MIX PCPN  27  27 100 W3G16     29.42F
CROOKSTON      FLURRIES  18  16  93 N21       29.57S WCI   1
STEPHEN NDAWN    N/A     16  12  86 N17         N/A  WCI   0
GREENBUSH NDAW   N/A     18  16  93 NW17        N/A  WCI   2
$$
  *****  WEATHER ACROSS CENTRAL AND WEST MINNESOTA  *****

CITY           SKY/WX    TMP DP  RH WIND       PRES   REMARKS
FOSSTON        CLOUDY    18  16  93 NW15G21   29.51R FOG     WCI   3
BEMIDJI        CLOUDY    22  20  95 W18       29.44S WCI   7
PARK RAPIDS    CLOUDY    26  23  88 NW20      29.42R WCI  12
ELBOW LAKE       N/A     24  23  93 NW21      29.48S FOG     WCI  10
WADENA         CLOUDY    27  25  93 NW15      29.43S WCI  15
DETROIT LAKES  CLOUDY    21  19  93 NW18G25   29.51R WCI   6
MOORHEAD       LGT SNOW  19  19 100 NW20G25   29.57S WCI   4
FERGUS FALLS   CLOUDY    23  21  93 N18G28    29.54R WCI   9
MORRIS MN        N/A     27  25  93 NW25G31   29.48F FOG     WCI  11
STAPLES        CLOUDY    28  27  93 W13G18    29.41F WCI  18
$$
  *****  WEATHER ELSEWHERE ACROSS MINNESOTA  *****

CITY           SKY/WX    TMP DP  RH WIND       PRES   REMARKS
DULUTH         LGT SNOW  35  33  92 NW9       29.30F FOG
INTRNTL FALLS  CLOUDY    34  32  92 NW6       29.37F FOG
ELY            LGT RAIN  34  34 100 CALM      29.33F VSB 1
CLOQUET        LGT RAIN  36  34  93 NW9       29.32F
WHEATON        CLOUDY    21  18  86 NW23G30   29.56R WCI   5
BRAINERD       CLOUDY    32  27  81 NW13      29.39S WCI  22
HIBBING        LGT RAIN  34  32  92 NW6       29.34S FOG
ALEXANDRIA     CLOUDY    27  23  85 NW17      29.44F WCI  14
SAINT CLOUD    CLOUDY    34  26  72 NW17      29.38F WCI  23
MINNEAPOLIS    LGT RAIN  35  32  88 NW16      29.35F
$$

  *****  WEATHER ACROSS SOUTH DAKOTA  *****

CITY           SKY/WX    TMP DP  RH WIND       PRES   REMARKS
SIOUX FALLS    CLOUDY    27  20  75 NW21G30   29.54F WCI  13
BROOKINGS      NOT AVBL
WATERTOWN      CLOUDY    21  14  74 NW22G31   29.53F WCI   5
HURON          CLOUDY    24  16  71 NW21G32   29.64R WCI   9
SISSETON         N/A     21  17  84 N29G36    29.55S WCI   3
ABERDEEN       CLOUDY    21  12  68 N18       29.64S WCI   6
MITCHELL       CLOUDY    28  19  69 N22       29.63  WCI  14
PIERRE         CLOUDY    28  19  69 NW24G35   29.67S WCI  14
MOBRIDGE       CLOUDY    24  16  71 NW25G35   29.66R WCI   8
RAPID CITY     PTCLDY    35  20  54 NW24G39   29.71S WCI  23
$$

  *****  SOME WEATHER IN NEARBY STATES *****

CITY           SKY/WX    TMP DP  RH WIND       PRES   REMARKS
GLASGOW MT     CLEAR     15  10  80 SE5       29.81F WCI   8
GREAT FALLS MT CLOUDY    35  22  58 SW13      29.77F
CHEYENNE WY    CLEAR     25  12  58 NW14G23   29.84S WCI  13
SCOTTSBLUFF NE PTCLDY    29  22  75 W10       29.83F WCI  20
OMAHA NE       CLOUDY    39  25  57 NW31G44   29.55R
DES MOINES IA  LGT RAIN  39  30  70 NW18G39   29.39F
DAVENPORT IA   LGT RAIN  48  47  96 NW3       29.18F VSB 1/4
CHICAGO IL     LGT RAIN  49  48  97 CALM      29.16F FOG
EAU CLAIRE WI  LGT RAIN  40  38  93 NW8       29.25S FOG
LA CROSSE WI   LGT RAIN  43  42  97 NW14      29.22F FOG
$$

  *****  SOME NATIONAL WEATHER *****

CITY           SKY/WX    TMP DP  RH WIND       PRES   REMARKS
LA GUARDIA NY  CLOUDY    51  48  89 E6        30.03F
RALEIGH NC     RAIN      64  61  90 S12G25    29.80F FOG
ATLANTA GA     CLOUDY    60  56  86 S13       29.74F
NEW ORLEANS LA PTCLDY    64  62  93 S8        29.74R
OKLAHOMA CITY  MOCLDY    45  36  70 NW14      29.71R
ALBUQUERQUE NM PTCLDY    39   7  26 NW15G28   30.05R
SALT LAKE CITY MOCLDY    37  24  59 SW3       30.23F
LOS ANGELES CA MOCLDY    68  10  10 N6        30.12R
BOISE ID       CLOUDY    38  31  76 SE3       30.21S
SEATTLE WA     PTCLDY    45  39  79 SE6       30.29R
$$

*** WEATHER ACROSS MANITOBA...SASKATCHEWAN AND ONTARIO ***
                ***ONTARIO***

CITY           SKY/WX    TMP DP  RH WIND       PRES   REMARKS
GERALDTON      FRZ DRZL  21  21 100 NE9       29.41S FOG     WCI  11
THUNDER BAY    CLOUDY    36  36 100 SW6       29.31F FOG
SIOUX LOOKOUT  FRZ DRZL  25  25 100 NE5       29.42R FOG     WCI  19
TORONTO        CLOUDY    45  39  81 E7        29.61F
BIG TROUT LK   LGT SNOW   0  -4  85 NE7       29.78F WCI -13
PICKLE LAKE    NOT AVBL
DRYDEN         LGT SNOW  28  27  93 NE8G18    29.39S WCI  20
KENORA         FLURRIES  28  27  93 N8        29.42R WCI  20
$$
                *** MANITOBA***

CITY           SKY/WX    TMP DP  RH WIND       PRES   REMARKS
BRANDON        PTCLDY     5   0  78 NW8       29.74S WCI  -8
DAUPHIN        FLURRIES   3  -2  78 NW9       29.86S WCI -11
ISLAND LAKE    MOCLDY    -6 -13  71 N8        29.85S WCI -21
PILOT MOUND      N/A      9   3  78 N22G29      N/A  WCI -11
THE PAS        CLEAR     -2  -8  78 CALM      29.93F
THOMPSON       CLEAR    -17 -22  76 CALM      29.95F
WINNIPEG       FLURRIES  12   7  79 N20G26    29.65R WCI  -6
LYNN LAKE      CLOUDY    -6  -9  84 S5        29.87F WCI -17
CHURCHILL      CLEAR    -15 -20  76 SW7       29.95F WCI -31
GILLAM         CLEAR    -18 -24  76 W2        29.97S
$$
                ***SASKATCHEWAN***

CITY           SKY/WX    TMP DP  RH WIND       PRES   REMARKS
ESTEVAN        PTCLDY     9   3  78 NW12      29.78F WCI  -6
KINDERSLEY     MOCLDY    10   7  85 SE8       29.76F WCI  -1
LLOYDMINSTER   CLOUDY    12   9  85 S12       29.75S WCI  -2
PRINCE ALBERT  CLEAR     -6  -8  92 S2        29.86F
REGINA         CLOUDY    10   7  85 N3        29.83S
YORKTON        MOCLDY     0  -4  85 NW6       29.83F WCI -12
N. BATTLEFORD  PTCLDY     3   1  92 E2        29.84R
LA RONGE       PTCLDY    -2  -4  92 S3        29.85F
SASKATOON      CLOUDY    10   9  92 SE3       29.85S
SWIFT CURRENT  CLOUDY    10   9  92 S9        29.74F WCI  -2
$$
NOTE: THESE ARE AUTOMATED STATIONS WITH LIMITED QUALITY CONTROL
      "FAIR" INDICATES FEW OR NO CLOUDS BELOW 12,000 FEET WITH NO
      SIGNIFICANT WEATHER AND/OR OBSTRUCTIONS TO VISIBILITY.
      SKY/WX - SKY CONDITION AND SIGNIFICANT WEATHER.
      TMP - AIR TEMPERATURE.    DP   - DEWPOINT TEMPERATURE.
      RH  - RELATIVE HUMIDITY.  PRES - PRESSURE.
      HX  - HEAT INDEX.         WCI  - WIND CHILL INDEX.
$



USA.gov is the U.S. government's official web portal to all federal, state and local government web resources and services.